C/2004 RG113 (LINEAR)

Epoch 2005 Mar. 11.0 TT = JDT 2453440.5  

T 2005 Mar. 3.71830 TT                                  Nakano

q   1.9423575            (2000.0)            P               Q

z  +0.0014162      Peri.  125.30595     -0.68689315     -0.72458286

 +/-0.0000017      Node     8.77296     +0.48745639     -0.51668552

e   0.9972491      Incl.   21.61829     +0.53903995     -0.45608743

From 393 observations 2004 Aug. 19-2005 July 17, mean residual 0".61.

   (1/a)org.= +0.001741, (1/a)fut.= +0.002971 (+/-0.000002), Q= 7.

Residuals in seconds of arc 

2004/                     050104 215  0.2+  0.4+    050304 132 (0.6+  2.1-) 

040819 704  0.9+  0.2+    050104 215  0.0   0.3+    050304 132  0.4-  1.0+  

040819 704  0.2-  0.4-    050105 D88  0.4+  0.1+    050305 213  0.2+  0.0   

040819 704  0.4+  0.8+    050105 D88  1.0-  0.6+    050305 213  0.3+  0.0   

040906 704  0.7+  0.8-    050105 D88  0.6+  1.1+    050305 213  0.5+  0.3+  

040906 704  0.5-  0.2+    050106 349  0.1+  0.3-    050306 360  0.4-  0.5+  

040906 704  0.3-  0.7-    050106 349  0.2-  0.3-    050306 360  0.4-  0.7+  

040906 704  0.7-  0.9+    050106 349  0.4-  0.4-    050310 945  0.4+  0.3-  

040906 704  0.1+  0.3+    050107 J78  0.5-  0.4+    050310 945  1.0+  1.1-  

040911 704  0.2+  0.2+    050108 204  0.1-  0.2-    050310 945 (1.1+  2.1-) 

040911 704  1.5+  0.3-    050108 204  0.3-  0.3+    050310 945  1.6+  0.5-  

040911 704  1.0+  0.5-    050108 900  0.0   0.5+    050310 945  0.9+  1.2-  

040911 704  0.0   0.6-    050108 900  0.0   0.1+    050311 213  0.0   0.2+  

040911 704  0.7+  0.2+    050109 355  0.6-  1.0-    050311 213  0.5+  0.4-  

040914 704  0.2-  0.2+    050109 355  0.6-  0.3-    050311 213  0.4-  0.0   

040914 704  0.0   0.1+    050110 201  0.7-  1.0+    050311 A02  0.3+  0.7-  

040914 704  0.1+  0.1+    050110 201 (2.3-  2.8+)   050311 A02  0.2+  0.2-  

040914 704  0.9-  0.4-    050110 201 (2.7-  1.4+)   050311 A02  0.2-  0.3-  

040914 704  0.1+  0.6-    050111 D88  0.6+  0.3-    050312 A02  0.3-  0.0   

041023 704  0.1+  0.5-    050111 D88  0.1-  0.4-    050312 A02  0.0   0.3-  

041023 704  0.2+  0.4-    050116 048  0.4+  0.5+    050312 A02  0.2+  0.1-  

041023 704  0.4-  0.8-    050116 048  0.1+  0.7+    050313 A30  0.1+  0.2-  

041023 704  0.0   0.5-    050116 048  0.3+  0.7+    050313 A30  0.1+  0.2-  

041023 704  0.2+  0.2-    050116 048  0.2+  0.4+    050313 A30  0.1+  0.4-  

041025 704  0.2+  0.3+    050116 048  0.2-  0.4+    050313 A30  0.0   0.6-  

041025 704  0.6+  0.4-    050117 945  0.4-  0.5-    050313 A30  0.1-  0.7-  

041025 704 (1.9-  2.3-)   050117 945  0.1-  0.1-    050313 595  0.2-  0.5-  

041025 704  0.2+  0.6+    050117 945  0.5-  0.5+    050313 595  0.2-  0.2-  

041103 704  0.6-  0.3+    050117 945  0.0   0.1-    050313 595  0.9+  0.8-  

041103 704  1.0-  0.6-    050117 945  0.3-  0.0     050315 349  0.1+  0.9-  

041103 704  1.0+  0.9+    050117 H41  0.0   0.4+    050315 349  0.0   0.6-  

041103 704  0.9+  0.3-    050117 H41  0.2-  0.6+    050315 349  0.1-  0.5-  

041103 704  0.8+  0.1-    050117 H41  0.1-  0.3+    050317 J76  0.0   0.4+  

041110 704  0.5-  0.9-    050117 H41  0.0   0.1-    050317 J76  0.1-  0.7+  

041110 704  0.3-  0.5-    050118 699 (1.4-  4.1-)   050317 J76  0.0   0.5+  

041110 704  0.2-  0.1+    050118 699 (0.9-  2.9-)   050318 D88  0.5-  1.0-  

041110 704  0.9-  0.2-    050118 699 (0.6-  3.5-)   050318 D88  1.1-  0.3+  

041110 704  0.8-  0.5+    050118 699 (2.3-  4.2-)   050318 D88  0.3+  0.3+  

041120 704  0.1+  0.3-    050121 213  0.2+  0.3+    050324 213  0.3-  0.4+  

041120 704  0.7-  0.2-    050121 213  0.3+  0.2-    050324 213  0.1-  0.3+  

041120 704  0.3-  0.7-    050121 213  0.1+  0.4+    050324 213  0.1-  0.4+  

041120 704  0.2-  0.4-    050124 H41  0.1+  0.8-    050328 939  0.0   0.5+  

041120 704  0.6-  0.4-    050124 H41  0.3+  0.3-    050328 939  0.3+  0.5+  

041122 704  0.2-  0.3-    050124 H41  0.6+  0.5-    050328 939  1.0+  1.2+  

041122 704  0.3-  0.5-    050124 H41  0.9+  0.3-    050329 939  0.1-  0.0   

041122 704  1.2-  1.5-    050129 704  0.1+  1.3+    050329 939  0.4+  0.2-  

041122 704  0.3-  0.8-    050129 704  0.6+  1.4+    050329 939  0.9+  0.5-  

041122 704  0.3-  0.6-    050129 704  0.1+  0.3+    050330 213  0.1-  0.2+  

041122 704  0.0   0.1-    050129 704  1.2+  0.3-    050330 213  0.1-  0.5+  

041122 704  0.2-  0.4-    050129 704  0.3+  1.4-    050330 213  0.3+  0.6+  

041122 704  0.1+  0.3-    050130 939  0.0   0.2-    050331 360  0.0   0.3+  

041123 G72  0.3-  0.6+    050130 939  0.2+  0.3-    050331 360  0.1-  0.4+  

041123 G72  0.1+  1.5-    050130 939  0.3+  0.1-    050331 A32  0.5-  0.3+  

041123 G72  0.3-  0.7+    050203 213  0.6-  0.8+    050331 A32  0.6-  0.5-  

041123 G72 (1.6+  2.3+)   050203 213  1.2+  0.6+    050331 A32  0.2-  0.1-  

041123 G72  0.7+  0.4+    050203 213  0.7+  0.5+    050331 A32  0.3-  0.4+  

041123 G72  0.3-  1.0+    050205 048  0.8-  0.7+    050401 A32  0.5-  0.3+  

041123 G72  0.3+  1.0+    050205 048  0.2-  0.6+    050401 A32  0.1+  0.2-  

041123 G72  0.9+  1.1+    050205 048  0.3-  0.2-    050401 A32  0.3-  0.1-  

041123 G72  0.3+  0.2+    050205 048  0.6-  0.1-    050401 A32  0.2-  0.2-  

041124 349  0.4-  0.7-    050205 048  0.6-  0.4+    050402 046  0.2+  0.5+  

041124 349  0.6-  0.7-    050206 360  0.1-  0.5+    050402 046  0.1-  0.7+  

041124 349  0.7-  0.6-    050206 360  0.3-  0.6+    050402 046  0.3-  1.2+  

041126 118  0.5+  0.1+    050209 213  0.8+  0.5+    050402 046  0.2+  0.7+  

041126 118  0.0   0.1+    050209 213  0.3-  0.4+    050402 046  0.1-  1.0+  

041126 118  0.0   0.0     050209 213  0.0   0.3+    050402 215  0.1-  0.6+  

041126 118  0.4+  0.5+    050210 132  1.2+  0.5-    050402 215  0.7-  0.3+  

041127 349  0.4-  0.2+    050210 132  0.1+  0.3-    050402 215  0.7-  0.4+  

041127 349  0.1-  0.2+    050210 132  0.0   0.3-    050403 A41  0.1-  0.2+  

041127 349  0.2-  0.2-    050211 726 (2.7-  5.8-)   050403 A41  0.4+  1.0-  

041127 213  0.0   0.4-    050211 726 (0.3-  2.5-)   050403 A41  0.4+  0.7-  

041127 213  0.7-  0.3-    050211 726 (0.6-  2.1-)   050405 D88  0.9-  0.6+  

041127 213  0.6-  0.4-    050211 726 (3.6-  4.5-)   050405 D88  0.4-  0.7+  

041127 213  0.6-  0.4-    050211 726 (1.3-  2.3-)   050405 D88  1.4-  0.6+  

041130 561  0.2+  0.6+    050211 726 (1.8-  3.3-)   050408 352  0.0   1.0-  

041130 561  0.1-  0.7+    050211 918  0.4-  0.5+    050408 352  0.9-  0.2-  

041130 561  0.2+  0.9+    050211 918  0.0   0.6+    050408 352  0.0   0.4-  

041201 349  0.4-  0.4-    050211 918  0.1+  0.4+    050409 D88  0.2-  1.1+  

041201 349  0.1-  0.5-    050211 918  0.2+  0.4+    050409 D88  1.5-  0.5+  

041201 349  0.3-  0.5-    050211 349  0.4-  0.1-    050409 D88  0.8-  0.9+  

041204 699 (2.4-  1.0-)   050211 349  0.1-  0.0     050410 J78  0.3+  1.3+  

041204 699 (2.4-  0.8-)   050211 349  0.0   0.2-    050410 A06  1.2-  0.8+  

041204 699  1.5-  0.3-    050211 939  0.1-  0.2-    050410 A06  0.4-  0.7+  

041204 699  1.6-  0.8-    050211 939  0.3-  0.0     050410 A06  0.1-  1.2+  

041205 349  0.6-  0.6-    050211 939  0.4-  0.0     050411 703 (0.6+  2.6-) 

041205 349  0.5-  0.7-    050211 J78  0.2+  1.0-    050411 703  1.1+  1.6-  

041205 349  0.5-  0.4-    050211 J78  0.2+  0.8+    050411 703 (2.1+  2.7-) 

041210 561  0.2+  0.6+    050211 J78 (2.2-  2.3-)   050411 703  0.4+  1.3-  

041210 561  0.1+  0.7+    050212 726 (1.6-  4.5-)   050414 704  0.2-  0.3-  

041210 561  0.4+  0.6+    050212 726  0.6-  0.9+    050414 704  0.3+  0.5-  

041210 561  0.7+  1.2+    050212 726 (0.7+  3.9-)   050414 704  0.1+  0.2+  

041211 360  0.3+  0.3+    050212 726 (0.7-  2.4-)   050414 704  0.4+  0.0   

041211 360  0.2+  0.3+    050212 726 (1.0-  2.3-)   050414 704  0.2-  0.8-  

041211 130  0.3+  0.1+    050212 726 (1.3-  4.1-)   050415 J78  0.5+  0.1-  

041211 130  0.1+  0.3+    050212 213  0.4+  0.4-    050421 703  0.3+  1.7+  

041211 130  0.1+  0.4+    050212 213  0.3+  0.4+    050421 703  0.9+  0.5+  

041214 204  0.1-  0.5+    050212 213  0.1+  0.9+    050421 703  0.2-  0.3+  

041214 204  0.2+  0.3+    050213 J78  0.1+  0.8+    050421 703  0.4+  1.2+  

041216 360  0.0   0.3+    050213 J78  0.1-  0.8+    050421 703  0.1-  0.4+  

041216 360  0.1-  0.2+    050213 J78  1.6+  1.2+    050421 703  1.2+  0.6-  

041217 D83  1.0-  0.5+    050213 726 (0.1+  2.4-)   050421 703  0.0   1.3-  

041217 D83 (2.1-  1.1-)   050213 726  0.3+  1.8-    050421 703  1.5+  1.1-  

041217 D83 (2.5-  0.8-)   050213 726 (0.8-  3.0-)   050423 349  0.1+  0.7-  

041218 349  0.4-  0.0     050213 J76  0.4+  0.1+    050423 349  0.4+  0.5-  

041218 349  0.1-  0.1-    050213 726 (0.3-  4.0-)   050423 349  0.4+  0.3-  

041218 349  0.1+  0.4-    050213 J76  0.2+  0.4+    050423 A32  1.0+  0.7-  

041219 A41 (2.7-  1.5-)   050213 726 (0.3-  2.5-)   050423 A32  0.4-  0.0   

041219 A41  1.4-  1.4-    050213 J76  0.1+  0.4+    050423 A32  0.2-  0.3+  

041219 A41 (2.2-  1.1-)   050213 726 (1.4-  2.1-)   050427 360  0.6-  0.2+  

041219 704  0.7-  0.5-    050215 213  0.4+  0.3+    050427 360  0.4-  0.2+  

041219 704  0.2+  0.2+    050215 213  0.2+  0.2-    050428 213  0.1-  0.1-  

041219 704  0.7+  0.8+    050215 213  0.5+  0.1-    050428 213  0.1-  0.1-  

041219 704  0.2+  0.6+    050216 726 (1.2-  2.4-)   050428 213  0.1-  0.0   

041219 704  0.1+  1.6+    050216 726 (1.4-  4.9-)   050428 J97  0.4-  0.0   

041219 213  0.1-  0.5+    050216 726  1.5-  1.4-    050430 A06  1.0-  0.3+  

041219 213  0.0   0.3+    050216 726 (0.2+  3.2-)   050430 A06  1.0-  0.5-  

041219 213  0.1-  0.1-    050216 726  0.1+  0.1-    050430 A06  0.4+  1.7-  

041220 H41  0.3-  0.7-    050216 726  0.4+  1.1-    050503 D88  1.3-  0.2-  

041220 H41  0.2+  0.8+    050217 132  0.4+  0.2-    050503 D88  0.4-  0.1+  

041220 H41  0.1-  0.3-    050217 132  1.0+  0.6-    050504 D88  1.8-  0.6+  

